Location: Eastview
(35.0756°N, 88.5453°W)
Time: 12:46:26
(UTC+00:00)

YAOGAN 1 - Pass Details

Date: 22 November 2019
Orbit: 619 x 621 km, 98.0° (Epoch: 07 December)

Event Time Altitude Azimuth Distance (km) Brightness Sun altitude
Rises 23:38:23 0° 136° (SE) 2,883 5.7 -11.1°
Reaches altitude 10° 23:40:54 10° 122° (ESE) 1,982 4.8 -11.6°
Maximum altitude 23:44:17 23° 70° (ENE) 1,329 3.6 -12.2°
Drops below altitude 10° 23:47:41 10° 18° (NNE) 1,991 4.8 -12.9°
Sets 23:50:13 0° 4° (N) 2,901 5.8 -13.4°
